STARLINK-35214

Last updated on Mon Oct 20 2025 00:02:06 GMT+0000 (Coordinated Universal Time)

1 65747U 25216P 25292.23558081 .00133539 00000+0 23586-2 0 9996 2 65747 53.1588 272.2486 0001279 98.7339 261.3815 15.49425801 4852
UTC large
Height (km)
Speed (km/s)
/
Latitude / Longitude
Inclination (degrees)
Orbital Period (minutes)
Azimuth
Elevation
Range (km)
Doppler Factor

Next 0 passes for location: London (51.5072 / 0.1276)

Sorry there are no passes over London.